Time,TemperatureF,DewpointF,PressureIn,WindDirection,WindDirectionDegrees,WindSpeedMPH,WindSpeedGustMPH,Humidity,HourlyPrecipIn,Conditions,Clouds,dailyrainin,SoftwareType,DateUTC
2013-04-10 00:00:00,62.3,60.0,30.14,SSW,195,3.0,4.0,92,0.00,,---,0.00,VWS V14.00,2013-04-10 04:00:00,
2013-04-10 00:05:00,62.2,60.2,30.14,SSW,195,2.0,4.0,93,0.00,,---,0.00,VWS V14.00,2013-04-10 04:05:00,
2013-04-10 00:10:00,62.2,60.2,30.14,SSW,195,3.0,4.0,93,0.00,,---,0.00,VWS V14.00,2013-04-10 04:10:00,
2013-04-10 00:15:00,62.2,60.2,30.14,SSW,199,3.0,5.0,93,0.00,,---,0.00,VWS V14.00,2013-04-10 04:15:00,
2013-04-10 00:20:00,62.2,60.2,30.14,SSW,212,4.0,5.0,93,0.00,,---,0.00,VWS V14.00,2013-04-10 04:20:00,
2013-04-10 00:25:00,62.2,60.2,30.14,SSW,210,4.0,5.0,93,0.00,,---,0.00,VWS V14.00,2013-04-10 04:25:00,
2013-04-10 00:30:00,62.3,60.2,30.14,SSW,207,5.0,5.0,93,0.00,,---,0.00,VWS V14.00,2013-04-10 04:30:00,
2013-04-10 00:35:00,62.3,60.2,30.13,SSW,203,4.0,6.0,93,0.00,,---,0.00,VWS V14.00,2013-04-10 04:35:00,
2013-04-10 00:40:00,62.3,60.2,30.13,SSW,210,4.0,6.0,93,0.00,,---,0.00,VWS V14.00,2013-04-10 04:40:00,
2013-04-10 00:45:00,62.4,60.3,30.13,SSW,206,2.0,6.0,93,0.00,,---,0.00,VWS V14.00,2013-04-10 04:45:00,
2013-04-10 00:50:00,62.3,60.2,30.13,SSW,206,3.0,6.0,93,0.00,,---,0.00,VWS V14.00,2013-04-10 04:50:00,
2013-04-10 00:55:00,62.3,60.2,30.13,SSW,203,4.0,6.0,93,0.00,,---,0.00,VWS V14.00,2013-04-10 04:55:00,
2013-04-10 01:00:00,62.2,60.2,30.13,SSW,199,3.0,4.0,93,0.00,,---,0.00,VWS V14.00,2013-04-10 05:00:00,
2013-04-10 01:05:00,62.2,60.2,30.13,SSW,199,3.0,4.0,93,0.00,,---,0.00,VWS V14.00,2013-04-10 05:05:00,
2013-04-10 01:10:00,62.2,60.2,30.13,SSW,197,2.0,4.0,93,0.00,,---,0.00,VWS V14.00,2013-04-10 05:10:00,
2013-04-10 01:15:00,62.2,60.2,30.13,SSW,199,2.0,5.0,93,0.00,,---,0.00,VWS V14.00,2013-04-10 05:15:00,
2013-04-10 01:20:00,62.1,60.1,30.13,SSW,199,2.0,5.0,93,0.00,,---,0.00,VWS V14.00,2013-04-10 05:20:00,
2013-04-10 01:25:00,62.0,60.0,30.13,SSW,199,0.0,5.0,93,0.00,,---,0.00,VWS V14.00,2013-04-10 05:25:00,
2013-04-10 01:30:00,62.0,60.0,30.13,SSW,200,0.0,1.0,93,0.00,,---,0.00,VWS V14.00,2013-04-10 05:30:00,
2013-04-10 01:35:00,61.9,60.2,30.12,SSW,210,4.0,5.0,94,0.00,,---,0.00,VWS V14.00,2013-04-10 05:35:00,
2013-04-10 01:40:00,61.8,59.8,30.13,SSW,205,0.0,5.0,93,0.00,,---,0.00,VWS V14.00,2013-04-10 05:40:00,
2013-04-10 01:45:00,61.8,60.1,30.12,SSW,199,0.0,5.0,94,0.00,,---,0.00,VWS V14.00,2013-04-10 05:45:00,
2013-04-10 01:50:00,61.8,60.1,30.12,SSW,197,4.0,5.0,94,0.00,,---,0.00,VWS V14.00,2013-04-10 05:50:00,
2013-04-10 01:55:00,61.9,60.2,30.12,SSW,206,3.0,5.0,94,0.00,,---,0.00,VWS V14.00,2013-04-10 05:55:00,
2013-04-10 02:00:00,61.9,60.2,30.12,SSW,208,4.0,5.0,94,0.00,,---,0.00,VWS V14.00,2013-04-10 06:00:00,
2013-04-10 02:05:00,61.9,60.2,30.12,SSW,202,2.0,5.0,94,0.00,,---,0.00,VWS V14.00,2013-04-10 06:05:00,
2013-04-10 02:10:00,62.0,60.3,30.12,SSW,199,3.0,5.0,94,0.00,,---,0.00,VWS V14.00,2013-04-10 06:10:00,
2013-04-10 02:15:00,62.1,60.4,30.11,SSW,204,1.0,5.0,94,0.00,,---,0.00,VWS V14.00,2013-04-10 06:15:00,
2013-04-10 02:20:00,62.0,60.3,30.11,SSW,196,1.0,5.0,94,0.00,,---,0.00,VWS V14.00,2013-04-10 06:20:00,
2013-04-10 02:25:00,62.0,60.3,30.11,SSW,199,2.0,5.0,94,0.00,,---,0.00,VWS V14.00,2013-04-10 06:25:00,
2013-04-10 02:30:00,61.9,60.2,30.11,SW,214,3.0,4.0,94,0.00,,---,0.00,VWS V14.00,2013-04-10 06:30:00,
2013-04-10 02:35:00,61.8,60.1,30.11,SSW,211,3.0,5.0,94,0.00,,---,0.00,VWS V14.00,2013-04-10 06:35:00,
2013-04-10 02:40:00,61.8,60.1,30.11,SSW,206,3.0,5.0,94,0.00,,---,0.00,VWS V14.00,2013-04-10 06:40:00,
2013-04-10 02:45:00,61.8,60.1,30.10,SSW,207,0.0,5.0,94,0.00,,---,0.00,VWS V14.00,2013-04-10 06:45:00,
2013-04-10 02:50:00,61.8,60.1,30.10,SSW,212,2.0,5.0,94,0.00,,---,0.00,VWS V14.00,2013-04-10 06:50:00,
2013-04-10 02:55:00,61.8,60.1,30.10,SSW,211,3.0,5.0,94,0.00,,---,0.00,VWS V14.00,2013-04-10 06:55:00,
2013-04-10 03:00:00,61.9,60.5,30.10,SW,214,2.0,4.0,95,0.00,,---,0.00,VWS V14.00,2013-04-10 07:00:00,
2013-04-10 03:05:00,62.0,60.3,30.10,SSW,205,3.0,4.0,94,0.00,,---,0.00,VWS V14.00,2013-04-10 07:05:00,
2013-04-10 03:10:00,61.9,60.2,30.10,SSW,204,3.0,4.0,94,0.00,,---,0.00,VWS V14.00,2013-04-10 07:10:00,
2013-04-10 03:15:00,61.9,60.2,30.09,SSW,204,3.0,4.0,94,0.00,,---,0.00,VWS V14.00,2013-04-10 07:15:00,
2013-04-10 03:21:00,61.9,60.5,30.09,SSW,212,3.0,3.0,95,0.00,,---,0.00,VWS V14.00,2013-04-10 07:21:00,
2013-04-10 03:26:00,61.9,60.5,30.10,SW,214,4.0,5.0,95,0.00,,---,0.00,VWS V14.00,2013-04-10 07:26:00,
2013-04-10 03:31:00,61.9,60.5,30.10,SSW,208,4.0,4.0,95,0.00,,---,0.00,VWS V14.00,2013-04-10 07:31:00,
2013-04-10 03:36:00,61.7,60.3,30.10,SSW,207,2.0,4.0,95,0.00,,---,0.00,VWS V14.00,2013-04-10 07:36:00,
2013-04-10 03:41:00,61.6,60.2,30.10,SSW,202,2.0,4.0,95,0.00,,---,0.00,VWS V14.00,2013-04-10 07:41:00,
2013-04-10 03:46:00,61.7,60.3,30.10,SSW,203,2.0,4.0,95,0.00,,---,0.00,VWS V14.00,2013-04-10 07:46:00,
2013-04-10 03:51:00,61.7,60.3,30.10,SSW,202,2.0,4.0,95,0.00,,---,0.00,VWS V14.00,2013-04-10 07:51:00,
2013-04-10 03:56:00,61.6,60.2,30.10,SSW,204,2.0,4.0,95,0.00,,---,0.00,VWS V14.00,2013-04-10 07:56:00,
2013-04-10 04:01:00,61.3,59.9,30.10,SSW,204,1.0,2.0,95,0.00,,---,0.00,VWS V14.00,2013-04-10 08:01:00,
2013-04-10 04:06:00,61.4,60.0,30.10,SSW,204,2.0,2.0,95,0.00,,---,0.00,VWS V14.00,2013-04-10 08:06:00,
2013-04-10 04:11:00,61.5,60.3,30.10,SSW,204,2.0,2.0,96,0.00,,---,0.00,VWS V14.00,2013-04-10 08:11:00,
2013-04-10 04:16:00,61.4,60.0,30.10,SSW,204,1.0,3.0,95,0.00,,---,0.00,VWS V14.00,2013-04-10 08:16:00,
2013-04-10 04:21:00,60.9,59.5,30.11,SSW,204,1.0,3.0,95,0.00,,---,0.00,VWS V14.00,2013-04-10 08:21:00,
2013-04-10 04:26:00,60.7,59.3,30.11,SSW,204,3.0,3.0,95,0.00,,---,0.00,VWS V14.00,2013-04-10 08:26:00,
2013-04-10 04:31:00,60.7,59.6,30.11,SSW,204,2.0,3.0,96,0.00,,---,0.00,VWS V14.00,2013-04-10 08:31:00,
2013-04-10 04:36:00,60.8,59.7,30.11,SSW,212,1.0,4.0,96,0.00,,---,0.00,VWS V14.00,2013-04-10 08:36:00,
2013-04-10 04:41:00,60.8,59.7,30.11,SSW,213,1.0,4.0,96,0.00,,---,0.00,VWS V14.00,2013-04-10 08:41:00,
2013-04-10 04:46:00,60.9,59.8,30.11,SW,216,3.0,5.0,96,0.00,,---,0.00,VWS V14.00,2013-04-10 08:46:00,
2013-04-10 04:51:00,61.1,60.0,30.11,SSW,212,3.0,5.0,96,0.00,,---,0.00,VWS V14.00,2013-04-10 08:51:00,
2013-04-10 04:56:00,61.3,60.2,30.11,SSW,212,3.0,5.0,96,0.00,,---,0.00,VWS V14.00,2013-04-10 08:56:00,
2013-04-10 05:01:00,61.2,60.0,30.11,SW,222,3.0,5.0,96,0.00,,---,0.00,VWS V14.00,2013-04-10 09:01:00,
2013-04-10 05:06:00,61.3,60.2,30.11,SW,224,0.0,5.0,96,0.00,,---,0.00,VWS V14.00,2013-04-10 09:06:00,
2013-04-10 05:11:00,61.3,60.2,30.11,SW,224,3.0,5.0,96,0.00,,---,0.00,VWS V14.00,2013-04-10 09:11:00,
2013-04-10 05:16:00,61.3,60.2,30.12,SW,224,0.0,5.0,96,0.00,,---,0.00,VWS V14.00,2013-04-10 09:16:00,
2013-04-10 05:21:00,61.1,60.0,30.11,SW,218,1.0,5.0,96,0.00,,---,0.00,VWS V14.00,2013-04-10 09:21:00,
2013-04-10 05:26:00,61.1,60.0,30.12,SSW,211,2.0,5.0,96,0.00,,---,0.00,VWS V14.00,2013-04-10 09:26:00,
2013-04-10 05:31:00,61.1,60.0,30.12,SW,222,3.0,5.0,96,0.00,,---,0.00,VWS V14.00,2013-04-10 09:31:00,
2013-04-10 05:36:00,60.9,59.8,30.12,WSW,241,2.0,5.0,96,0.00,,---,0.00,VWS V14.00,2013-04-10 09:36:00,
2013-04-10 05:41:00,61.0,59.9,30.12,WSW,241,2.0,5.0,96,0.00,,---,0.00,VWS V14.00,2013-04-10 09:41:00,
2013-04-10 05:47:00,61.0,59.9,30.12,SW,235,4.0,5.0,96,0.00,,---,0.00,VWS V14.00,2013-04-10 09:47:00,
2013-04-10 05:52:00,60.8,59.7,30.12,SW,236,3.0,5.0,96,0.00,,---,0.00,VWS V14.00,2013-04-10 09:52:00,
2013-04-10 05:56:00,60.8,59.7,30.12,SW,236,2.0,5.0,96,0.00,,---,0.00,VWS V14.00,2013-04-10 09:56:00,
2013-04-10 06:01:00,60.9,59.8,30.12,WSW,239,3.0,5.0,96,0.00,,---,0.00,VWS V14.00,2013-04-10 10:01:00,
2013-04-10 06:06:00,60.9,59.8,30.12,SW,235,2.0,5.0,96,0.00,,---,0.00,VWS V14.00,2013-04-10 10:06:00,
2013-04-10 06:11:00,60.9,59.8,30.12,SW,225,2.0,5.0,96,0.00,,---,0.00,VWS V14.00,2013-04-10 10:11:00,
2013-04-10 06:16:00,60.8,59.7,30.12,SW,225,2.0,5.0,96,0.00,,---,0.00,VWS V14.00,2013-04-10 10:16:00,
2013-04-10 06:22:00,60.7,59.6,30.12,SW,233,1.0,5.0,96,0.00,,---,0.00,VWS V14.00,2013-04-10 10:22:00,
2013-04-10 06:27:00,60.8,60.0,30.13,SW,233,1.0,5.0,97,0.00,,---,0.00,VWS V14.00,2013-04-10 10:27:00,
2013-04-10 06:31:00,60.9,59.8,30.13,SW,233,0.0,1.0,96,0.00,,---,0.00,VWS V14.00,2013-04-10 10:31:00,
2013-04-10 06:37:00,60.9,59.8,30.13,SW,233,0.0,1.0,96,0.00,,---,0.00,VWS V14.00,2013-04-10 10:37:00,
2013-04-10 06:42:00,60.8,59.7,30.14,SW,233,0.0,1.0,96,0.00,,---,0.00,VWS V14.00,2013-04-10 10:42:00,
2013-04-10 06:47:00,60.7,59.6,30.14,SW,233,0.0,1.0,96,0.00,,---,0.00,VWS V14.00,2013-04-10 10:47:00,
2013-04-10 06:52:00,60.7,59.8,30.14,SW,233,0.0,1.0,97,0.00,,---,0.00,VWS V14.00,2013-04-10 10:52:00,
2013-04-10 06:57:00,60.7,59.8,30.14,SW,233,0.0,1.0,97,0.00,,---,0.00,VWS V14.00,2013-04-10 10:57:00,
2013-04-10 07:02:00,60.6,59.8,30.14,SW,233,0.0,0.0,97,0.00,,---,0.00,VWS V14.00,2013-04-10 11:02:00,
2013-04-10 07:07:00,60.4,59.3,30.15,SW,233,0.0,1.0,96,0.00,,---,0.00,VWS V14.00,2013-04-10 11:07:00,
2013-04-10 07:12:00,60.4,59.3,30.15,SW,233,1.0,1.0,96,0.00,,---,0.00,VWS V14.00,2013-04-10 11:12:00,
2013-04-10 07:17:00,60.1,59.0,30.15,SW,233,0.0,2.0,96,0.00,,---,0.00,VWS V14.00,2013-04-10 11:17:00,
2013-04-10 07:22:00,59.8,58.7,30.15,SW,233,0.0,2.0,96,0.00,,---,0.00,VWS V14.00,2013-04-10 11:22:00,
2013-04-10 07:27:00,59.9,58.8,30.15,SW,233,1.0,2.0,96,0.00,,---,0.00,VWS V14.00,2013-04-10 11:27:00,
2013-04-10 07:32:00,60.2,59.3,30.15,SW,225,1.0,3.0,97,0.00,,---,0.00,VWS V14.00,2013-04-10 11:32:00,
2013-04-10 07:37:00,60.3,59.5,30.15,SSW,199,2.0,4.0,97,0.00,,---,0.00,VWS V14.00,2013-04-10 11:37:00,
2013-04-10 07:42:00,61.0,60.2,30.15,SW,215,3.0,4.0,97,0.00,,---,0.00,VWS V14.00,2013-04-10 11:42:00,
2013-04-10 07:47:00,61.7,60.8,30.15,SW,227,3.0,4.0,97,0.00,,---,0.00,VWS V14.00,2013-04-10 11:47:00,
2013-04-10 07:52:00,62.2,61.3,30.15,SW,229,3.0,4.0,97,0.00,,---,0.00,VWS V14.00,2013-04-10 11:52:00,
2013-04-10 07:57:00,62.5,61.6,30.15,SW,227,3.0,6.0,97,0.00,,---,0.00,VWS V14.00,2013-04-10 11:57:00,
2013-04-10 08:02:00,62.7,61.8,30.15,SW,224,5.0,6.0,97,0.00,,---,0.00,VWS V14.00,2013-04-10 12:02:00,
2013-04-10 08:07:00,63.0,62.1,30.15,SW,229,6.0,7.0,97,0.00,,---,0.00,VWS V14.00,2013-04-10 12:07:00,
2013-04-10 08:12:00,63.2,62.3,30.15,WSW,237,9.0,9.0,97,0.00,,---,0.00,VWS V14.00,2013-04-10 12:12:00,
2013-04-10 08:17:00,63.4,62.5,30.15,WSW,241,3.0,9.0,97,0.00,,---,0.00,VWS V14.00,2013-04-10 12:17:00,
2013-04-10 08:22:00,63.7,62.8,30.15,WSW,242,6.0,9.0,97,0.00,,---,0.00,VWS V14.00,2013-04-10 12:22:00,
2013-04-10 08:27:00,64.1,62.9,30.16,WSW,249,7.0,10.0,96,0.00,,---,0.00,VWS V14.00,2013-04-10 12:27:00,
2013-04-10 08:32:00,64.5,63.3,30.16,WSW,247,8.0,11.0,96,0.00,,---,0.00,VWS V14.00,2013-04-10 12:32:00,
2013-04-10 08:37:00,64.9,63.4,30.16,SW,233,8.0,12.0,95,0.00,,---,0.00,VWS V14.00,2013-04-10 12:37:00,
2013-04-10 08:42:00,65.3,63.2,30.16,WSW,243,7.0,13.0,93,0.00,,---,0.00,VWS V14.00,2013-04-10 12:42:00,
2013-04-10 08:47:00,66.0,63.6,30.16,West,260,8.0,13.0,92,0.00,,---,0.00,VWS V14.00,2013-04-10 12:47:00,
2013-04-10 08:52:00,66.5,63.8,30.15,West,259,9.0,13.0,91,0.00,,---,0.00,VWS V14.00,2013-04-10 12:52:00,
2013-04-10 08:57:00,67.0,63.7,30.15,WSW,250,7.0,13.0,89,0.00,,---,0.00,VWS V14.00,2013-04-10 12:57:00,
2013-04-10 09:02:00,67.6,63.9,30.15,WSW,237,7.0,12.0,88,0.00,,---,0.00,VWS V14.00,2013-04-10 13:02:00,
2013-04-10 09:07:00,68.2,64.2,30.16,SW,229,9.0,12.0,87,0.00,,---,0.00,VWS V14.00,2013-04-10 13:07:00,
2013-04-10 09:12:00,68.6,63.9,30.16,WSW,237,6.0,14.0,85,0.00,,---,0.00,VWS V14.00,2013-04-10 13:12:00,
2013-04-10 09:17:00,69.1,64.1,30.16,WSW,253,10.0,14.0,84,0.00,,---,0.00,VWS V14.00,2013-04-10 13:17:00,
2013-04-10 09:22:00,69.6,64.2,30.16,WSW,243,8.0,14.0,83,0.00,,---,0.00,VWS V14.00,2013-04-10 13:22:00,
2013-04-10 09:27:00,69.9,64.2,30.16,West,264,13.0,15.0,82,0.00,,---,0.00,VWS V14.00,2013-04-10 13:27:00,
2013-04-10 09:32:00,70.1,63.3,30.16,WSW,245,12.0,19.0,79,0.00,,---,0.00,VWS V14.00,2013-04-10 13:32:00,
2013-04-10 09:37:00,70.4,63.6,30.16,WSW,247,16.0,19.0,79,0.00,,---,0.00,VWS V14.00,2013-04-10 13:37:00,
2013-04-10 09:42:00,70.7,63.1,30.16,WSW,242,15.0,21.0,77,0.00,,---,0.00,VWS V14.00,2013-04-10 13:42:00,
2013-04-10 09:47:00,71.0,63.1,30.16,WSW,258,16.0,21.0,76,0.00,,---,0.00,VWS V14.00,2013-04-10 13:47:00,
2013-04-10 09:52:00,71.3,63.0,30.16,SW,233,11.0,21.0,75,0.00,,---,0.00,VWS V14.00,2013-04-10 13:52:00,
2013-04-10 09:57:00,71.8,63.8,30.16,WSW,251,9.0,21.0,76,0.00,,---,0.00,VWS V14.00,2013-04-10 13:57:00,
2013-04-10 10:02:00,72.6,63.8,30.16,SW,233,13.0,14.0,74,0.00,,---,0.00,VWS V14.00,2013-04-10 14:02:00,
2013-04-10 10:07:00,72.9,63.3,30.16,WSW,258,11.0,17.0,72,0.00,,---,0.00,VWS V14.00,2013-04-10 14:07:00,
2013-04-10 10:12:00,73.0,63.0,30.16,WSW,249,19.0,19.0,71,0.00,,---,0.00,VWS V14.00,2013-04-10 14:12:00,
2013-04-10 10:17:00,73.0,63.0,30.16,West,275,17.0,19.0,71,0.00,,---,0.00,VWS V14.00,2013-04-10 14:17:00,
2013-04-10 10:22:00,73.8,63.4,30.16,West,260,9.0,19.0,70,0.00,,---,0.00,VWS V14.00,2013-04-10 14:22:00,
2013-04-10 10:27:00,73.9,63.1,30.16,SW,221,13.0,19.0,69,0.00,,---,0.00,VWS V14.00,2013-04-10 14:27:00,
2013-04-10 10:32:00,74.4,64.0,30.16,WSW,246,14.0,16.0,70,0.00,,---,0.00,VWS V14.00,2013-04-10 14:32:00,
2013-04-10 10:37:00,74.3,62.6,30.16,WSW,249,9.0,17.0,67,0.00,,---,0.00,VWS V14.00,2013-04-10 14:37:00,
2013-04-10 10:42:00,74.5,62.8,30.16,West,260,12.0,17.0,67,0.00,,---,0.00,VWS V14.00,2013-04-10 14:42:00,
2013-04-10 10:47:00,74.4,62.7,30.16,WSW,237,7.0,17.0,67,0.00,,---,0.00,VWS V14.00,2013-04-10 14:47:00,
2013-04-10 10:52:00,75.3,63.6,30.16,WSW,250,11.0,17.0,67,0.00,,---,0.00,VWS V14.00,2013-04-10 14:52:00,
2013-04-10 10:57:00,75.9,63.3,30.15,SW,235,8.0,17.0,65,0.00,,---,0.00,VWS V14.00,2013-04-10 14:57:00,
2013-04-10 11:02:00,75.5,62.9,30.15,WSW,247,10.0,15.0,65,0.00,,---,0.00,VWS V14.00,2013-04-10 15:02:00,
2013-04-10 11:07:00,76.0,63.0,30.15,West,260,11.0,15.0,64,0.00,,---,0.00,VWS V14.00,2013-04-10 15:07:00,
2013-04-10 11:12:00,75.8,62.3,30.15,West,267,8.0,15.0,63,0.00,,---,0.00,VWS V14.00,2013-04-10 15:12:00,
2013-04-10 11:17:00,76.3,62.8,30.15,West,268,10.0,15.0,63,0.00,,---,0.00,VWS V14.00,2013-04-10 15:17:00,
2013-04-10 11:22:00,76.3,62.8,30.15,SSW,202,6.0,15.0,63,0.00,,---,0.00,VWS V14.00,2013-04-10 15:22:00,
2013-04-10 11:27:00,76.9,62.4,30.15,West,276,9.0,15.0,61,0.00,,---,0.00,VWS V14.00,2013-04-10 15:27:00,
2013-04-10 11:32:00,77.1,62.6,30.15,SW,233,10.0,15.0,61,0.00,,---,0.00,VWS V14.00,2013-04-10 15:32:00,
2013-04-10 11:37:00,76.9,62.0,30.15,SSW,212,8.0,16.0,60,0.00,,---,0.00,VWS V14.00,2013-04-10 15:37:00,
2013-04-10 11:42:00,77.1,62.2,30.14,SW,228,3.0,17.0,60,0.00,,---,0.00,VWS V14.00,2013-04-10 15:42:00,
2013-04-10 11:47:00,77.5,62.5,30.14,West,279,10.0,17.0,60,0.00,,---,0.00,VWS V14.00,2013-04-10 15:47:00,
2013-04-10 11:52:00,77.4,62.4,30.14,West,277,12.0,17.0,60,0.00,,---,0.00,VWS V14.00,2013-04-10 15:52:00,
2013-04-10 11:57:00,77.5,62.1,30.14,SW,235,5.0,17.0,59,0.00,,---,0.00,VWS V14.00,2013-04-10 15:57:00,
2013-04-10 12:02:00,77.9,62.4,30.14,WSW,239,9.0,17.0,59,0.00,,---,0.00,VWS V14.00,2013-04-10 16:02:00,
2013-04-10 12:07:00,78.2,62.7,30.14,SSW,202,6.0,17.0,59,0.00,,---,0.00,VWS V14.00,2013-04-10 16:07:00,
2013-04-10 12:12:00,78.5,63.5,30.14,WSW,251,9.0,17.0,60,0.00,,---,0.00,VWS V14.00,2013-04-10 16:12:00,
2013-04-10 12:17:00,78.5,63.0,30.14,SSW,212,13.0,17.0,59,0.00,,---,0.00,VWS V14.00,2013-04-10 16:17:00,
2013-04-10 12:22:00,78.8,62.3,30.13,SSW,207,3.0,17.0,57,0.00,,---,0.00,VWS V14.00,2013-04-10 16:22:00,
2013-04-10 12:27:00,79.4,63.3,30.13,WSW,251,10.0,17.0,58,0.00,,---,0.00,VWS V14.00,2013-04-10 16:27:00,
2013-04-10 12:32:00,79.1,62.6,30.13,SSW,202,7.0,13.0,57,0.00,,---,0.00,VWS V14.00,2013-04-10 16:32:00,
2013-04-10 12:37:00,79.4,62.3,30.12,SW,216,8.0,14.0,56,0.00,,---,0.00,VWS V14.00,2013-04-10 16:37:00,
2013-04-10 12:43:00,79.8,63.2,30.12,SSW,199,9.0,14.0,57,0.00,,---,0.00,VWS V14.00,2013-04-10 16:43:00,
2013-04-10 12:48:00,80.2,62.1,30.12,SSW,203,11.0,16.0,54,0.00,,---,0.00,VWS V14.00,2013-04-10 16:48:00,
2013-04-10 12:53:00,80.0,62.4,30.12,SW,232,6.0,16.0,55,0.00,,---,0.00,VWS V14.00,2013-04-10 16:53:00,
2013-04-10 12:58:00,80.4,62.2,30.12,South,180,8.0,16.0,54,0.00,,---,0.00,VWS V14.00,2013-04-10 16:58:00,
2013-04-10 13:03:00,80.1,62.0,30.11,SSE,153,9.0,13.0,54,0.00,,---,0.00,VWS V14.00,2013-04-10 17:03:00,
2013-04-10 13:08:00,80.0,63.4,30.11,SE,130,11.0,13.0,57,0.00,,---,0.00,VWS V14.00,2013-04-10 17:08:00,
2013-04-10 13:13:00,79.3,63.7,30.11,SSE,151,9.0,13.0,59,0.00,,---,0.00,VWS V14.00,2013-04-10 17:13:00,
2013-04-10 13:18:00,79.1,63.1,30.11,SSE,163,9.0,18.0,58,0.00,,---,0.00,VWS V14.00,2013-04-10 17:18:00,
2013-04-10 13:23:00,79.0,63.9,30.11,SE,145,11.0,18.0,60,0.00,,---,0.00,VWS V14.00,2013-04-10 17:23:00,
2013-04-10 13:28:00,79.3,62.8,30.11,SSE,162,10.0,18.0,57,0.00,,---,0.00,VWS V14.00,2013-04-10 17:28:00,
2013-04-10 13:33:00,79.6,63.0,30.10,South,179,8.0,18.0,57,0.00,,---,0.00,VWS V14.00,2013-04-10 17:33:00,
2013-04-10 13:38:00,78.9,62.9,30.10,SSE,154,14.0,18.0,58,0.00,,---,0.00,VWS V14.00,2013-04-10 17:38:00,
2013-04-10 13:43:00,79.2,63.7,30.10,South,189,14.0,18.0,59,0.00,,---,0.00,VWS V14.00,2013-04-10 17:43:00,
2013-04-10 13:48:00,79.5,63.0,30.10,SSW,192,15.0,18.0,57,0.00,,---,0.00,VWS V14.00,2013-04-10 17:48:00,
2013-04-10 13:53:00,79.6,63.0,30.10,South,184,11.0,18.0,57,0.00,,---,0.00,VWS V14.00,2013-04-10 17:53:00,
2013-04-10 13:58:00,80.0,63.9,30.10,SE,146,11.0,11.0,58,0.00,,---,0.00,VWS V14.00,2013-04-10 17:58:00,
2013-04-10 14:03:00,79.7,63.6,30.10,SE,133,14.0,16.0,58,0.00,,---,0.00,VWS V14.00,2013-04-10 18:03:00,
2013-04-10 14:08:00,79.3,63.3,30.10,South,175,14.0,17.0,58,0.00,,---,0.00,VWS V14.00,2013-04-10 18:08:00,
2013-04-10 14:13:00,79.9,62.8,30.10,SSE,155,8.0,17.0,56,0.00,,---,0.00,VWS V14.00,2013-04-10 18:13:00,
2013-04-10 14:18:00,80.4,63.3,30.10,South,181,11.0,18.0,56,0.00,,---,0.00,VWS V14.00,2013-04-10 18:18:00,
2013-04-10 14:23:00,80.1,63.0,30.09,SSE,155,14.0,18.0,56,0.00,,---,0.00,VWS V14.00,2013-04-10 18:23:00,
2013-04-10 14:28:00,79.9,63.3,30.09,SSE,168,17.0,22.0,57,0.00,,---,0.00,VWS V14.00,2013-04-10 18:28:00,
2013-04-10 14:33:00,79.1,62.6,30.09,SSE,166,20.0,22.0,57,0.00,,---,0.00,VWS V14.00,2013-04-10 18:33:00,
2013-04-10 14:38:00,79.0,63.5,30.09,SSE,155,17.0,22.0,59,0.00,,---,0.00,VWS V14.00,2013-04-10 18:38:00,
2013-04-10 14:43:00,79.5,63.4,30.09,SSE,155,13.0,22.0,58,0.00,,---,0.00,VWS V14.00,2013-04-10 18:43:00,
2013-04-10 14:48:00,79.6,63.5,30.09,SSE,162,8.0,22.0,58,0.00,,---,0.00,VWS V14.00,2013-04-10 18:48:00,
2013-04-10 14:53:00,79.5,63.0,30.09,SSE,164,12.0,22.0,57,0.00,,---,0.00,VWS V14.00,2013-04-10 18:53:00,
2013-04-10 14:58:00,79.2,62.7,30.08,SSE,162,14.0,15.0,57,0.00,,---,0.00,VWS V14.00,2013-04-10 18:58:00,
2013-04-10 15:03:00,78.9,62.9,30.08,SSE,154,12.0,18.0,58,0.00,,---,0.00,VWS V14.00,2013-04-10 19:03:00,
2013-04-10 15:08:00,79.1,63.1,30.08,South,172,10.0,18.0,58,0.00,,---,0.00,VWS V14.00,2013-04-10 19:08:00,
2013-04-10 15:13:00,79.7,63.6,30.08,South,181,11.0,18.0,58,0.00,,---,0.00,VWS V14.00,2013-04-10 19:13:00,
2013-04-10 15:18:00,79.9,62.8,30.08,SSW,208,15.0,18.0,56,0.00,,---,0.00,VWS V14.00,2013-04-10 19:18:00,
2013-04-10 15:23:00,80.0,63.4,30.08,South,173,8.0,18.0,57,0.00,,---,0.00,VWS V14.00,2013-04-10 19:23:00,
2013-04-10 15:28:00,79.7,63.1,30.08,South,177,11.0,13.0,57,0.00,,---,0.00,VWS V14.00,2013-04-10 19:28:00,
2013-04-10 15:33:00,79.9,63.8,30.07,South,172,12.0,16.0,58,0.00,,---,0.00,VWS V14.00,2013-04-10 19:33:00,
2013-04-10 15:38:00,79.1,63.1,30.07,SSE,166,14.0,20.0,58,0.00,,---,0.00,VWS V14.00,2013-04-10 19:38:00,
2013-04-10 15:43:00,79.2,63.2,30.06,South,175,17.0,20.0,58,0.00,,---,0.00,VWS V14.00,2013-04-10 19:43:00,
2013-04-10 15:48:00,79.0,63.9,30.06,SSE,156,16.0,20.0,60,0.00,,---,0.00,VWS V14.00,2013-04-10 19:48:00,
2013-04-10 15:53:00,79.4,63.3,30.06,SE,145,18.0,20.0,58,0.00,,---,0.00,VWS V14.00,2013-04-10 19:53:00,
2013-04-10 15:58:00,78.8,63.3,30.06,SSE,159,10.0,17.0,59,0.00,,---,0.00,VWS V14.00,2013-04-10 19:58:00,
2013-04-10 16:03:00,79.0,63.5,30.05,SSE,166,15.0,17.0,59,0.00,,---,0.00,VWS V14.00,2013-04-10 20:03:00,
2013-04-10 16:08:00,78.7,62.7,30.05,South,191,16.0,19.0,58,0.00,,---,0.00,VWS V14.00,2013-04-10 20:08:00,
2013-04-10 16:13:00,78.5,63.5,30.05,SSW,210,14.0,22.0,60,0.00,,---,0.00,VWS V14.00,2013-04-10 20:13:00,
2013-04-10 16:18:00,78.9,62.4,30.05,SSW,197,11.0,22.0,57,0.00,,---,0.00,VWS V14.00,2013-04-10 20:18:00,
2013-04-10 16:23:00,78.8,62.8,30.05,SSE,166,13.0,22.0,58,0.00,,---,0.00,VWS V14.00,2013-04-10 20:23:00,
2013-04-10 16:28:00,78.8,62.8,30.05,SSE,162,12.0,18.0,58,0.00,,---,0.00,VWS V14.00,2013-04-10 20:28:00,
2013-04-10 16:33:00,78.7,62.7,30.05,SSE,159,15.0,18.0,58,0.00,,---,0.00,VWS V14.00,2013-04-10 20:33:00,
2013-04-10 16:38:00,78.5,62.0,30.05,SSW,193,14.0,19.0,57,0.00,,---,0.00,VWS V14.00,2013-04-10 20:38:00,
2013-04-10 16:43:00,78.0,62.0,30.04,South,170,12.0,20.0,58,0.00,,---,0.00,VWS V14.00,2013-04-10 20:43:00,
2013-04-10 16:48:00,78.3,62.8,30.05,South,172,8.0,20.0,59,0.00,,---,0.00,VWS V14.00,2013-04-10 20:48:00,
2013-04-10 16:53:00,78.5,61.5,30.05,SSE,162,14.0,20.0,56,0.00,,---,0.00,VWS V14.00,2013-04-10 20:53:00,
2013-04-10 16:58:00,78.2,62.2,30.05,South,169,9.0,16.0,58,0.00,,---,0.00,VWS V14.00,2013-04-10 20:58:00,
2013-04-10 17:03:00,77.7,61.8,30.05,South,178,10.0,19.0,58,0.00,,---,0.00,VWS V14.00,2013-04-10 21:03:00,
2013-04-10 17:08:00,77.7,61.8,30.05,SSW,194,19.0,19.0,58,0.00,,---,0.00,VWS V14.00,2013-04-10 21:08:00,
2013-04-10 17:13:00,77.8,61.4,30.05,SSE,164,13.0,20.0,57,0.00,,---,0.00,VWS V14.00,2013-04-10 21:13:00,
2013-04-10 17:18:00,77.4,61.5,30.05,South,171,10.0,20.0,58,0.00,,---,0.00,VWS V14.00,2013-04-10 21:18:00,
2013-04-10 17:23:00,77.3,61.4,30.05,South,173,7.0,20.0,58,0.00,,---,0.00,VWS V14.00,2013-04-10 21:23:00,
2013-04-10 17:28:00,77.0,61.1,30.05,SSE,161,11.0,13.0,58,0.00,,---,0.00,VWS V14.00,2013-04-10 21:28:00,
2013-04-10 17:33:00,76.9,61.5,30.05,SSE,160,14.0,16.0,59,0.00,,---,0.00,VWS V14.00,2013-04-10 21:33:00,
2013-04-10 17:38:00,77.1,61.2,30.05,South,181,11.0,17.0,58,0.00,,---,0.00,VWS V14.00,2013-04-10 21:38:00,
2013-04-10 17:43:00,76.9,61.0,30.05,South,183,8.0,17.0,58,0.00,,---,0.00,VWS V14.00,2013-04-10 21:43:00,
2013-04-10 17:48:00,76.9,61.5,30.05,SSE,165,7.0,17.0,59,0.00,,---,0.00,VWS V14.00,2013-04-10 21:48:00,
2013-04-10 17:53:00,76.8,60.9,30.05,South,191,8.0,17.0,58,0.00,,---,0.00,VWS V14.00,2013-04-10 21:53:00,
2013-04-10 17:58:00,76.7,61.3,30.04,SSE,166,9.0,12.0,59,0.00,,---,0.00,VWS V14.00,2013-04-10 21:58:00,
2013-04-10 18:03:00,76.3,61.4,30.04,South,180,7.0,14.0,60,0.00,,---,0.00,VWS V14.00,2013-04-10 22:03:00,
2013-04-10 18:08:00,76.0,61.6,30.04,SSE,149,8.0,14.0,61,0.00,,---,0.00,VWS V14.00,2013-04-10 22:08:00,
2013-04-10 18:13:00,75.9,61.5,30.04,South,188,7.0,14.0,61,0.00,,---,0.00,VWS V14.00,2013-04-10 22:13:00,
2013-04-10 18:18:00,75.5,60.2,30.04,South,175,8.0,16.0,59,0.00,,---,0.00,VWS V14.00,2013-04-10 22:18:00,
2013-04-10 18:23:00,75.2,60.4,30.05,SSW,198,8.0,16.0,60,0.00,,---,0.00,VWS V14.00,2013-04-10 22:23:00,
2013-04-10 18:28:00,75.2,60.4,30.05,South,177,11.0,13.0,60,0.00,,---,0.00,VWS V14.00,2013-04-10 22:28:00,
2013-04-10 18:33:00,74.4,60.1,30.04,SSW,194,8.0,15.0,61,0.00,,---,0.00,VWS V14.00,2013-04-10 22:33:00,
2013-04-10 18:38:00,73.9,60.5,30.04,South,179,7.0,15.0,63,0.00,,---,0.00,VWS V14.00,2013-04-10 22:38:00,
2013-04-10 18:43:00,73.4,60.5,30.04,South,187,11.0,15.0,64,0.00,,---,0.00,VWS V14.00,2013-04-10 22:43:00,
2013-04-10 18:48:00,73.1,60.7,30.04,South,188,7.0,15.0,65,0.00,,---,0.00,VWS V14.00,2013-04-10 22:48:00,
2013-04-10 18:53:00,72.9,60.5,30.04,SSE,168,8.0,15.0,65,0.00,,---,0.00,VWS V14.00,2013-04-10 22:53:00,
2013-04-10 18:58:00,72.7,60.3,30.04,South,181,8.0,9.0,65,0.00,,---,0.00,VWS V14.00,2013-04-10 22:58:00,
2013-04-10 19:03:00,72.4,60.4,30.04,South,182,9.0,13.0,66,0.00,,---,0.00,VWS V14.00,2013-04-10 23:03:00,
2013-04-10 19:08:00,72.0,60.5,30.04,South,183,5.0,13.0,67,0.00,,---,0.00,VWS V14.00,2013-04-10 23:08:00,
2013-04-10 19:13:00,71.7,60.2,30.04,SSE,168,6.0,13.0,67,0.00,,---,0.00,VWS V14.00,2013-04-10 23:13:00,
2013-04-10 19:18:00,71.2,60.1,30.04,South,178,5.0,13.0,68,0.00,,---,0.00,VWS V14.00,2013-04-10 23:18:00,
2013-04-10 19:23:00,70.8,60.1,30.04,South,187,4.0,13.0,69,0.00,,---,0.00,VWS V14.00,2013-04-10 23:23:00,
2013-04-10 19:28:00,70.6,59.5,30.04,SSW,204,9.0,13.0,68,0.00,,---,0.00,VWS V14.00,2013-04-10 23:28:00,
2013-04-10 19:34:00,70.7,59.2,30.04,South,189,5.0,13.0,67,0.00,,---,0.00,VWS V14.00,2013-04-10 23:34:00,
2013-04-10 19:39:00,70.3,59.2,30.03,South,179,5.0,13.0,68,0.00,,---,0.00,VWS V14.00,2013-04-10 23:39:00,
2013-04-10 19:43:00,69.7,59.1,30.04,SSW,197,9.0,13.0,69,0.00,,---,0.00,VWS V14.00,2013-04-10 23:43:00,
2013-04-10 19:49:00,69.2,59.4,30.04,South,174,6.0,13.0,71,0.00,,---,0.00,VWS V14.00,2013-04-10 23:49:00,
2013-04-10 19:54:00,68.5,59.5,30.04,South,175,5.0,13.0,73,0.00,,---,0.00,VWS V14.00,2013-04-10 23:54:00,
2013-04-10 19:59:00,67.9,59.3,30.03,South,175,5.0,7.0,74,0.00,,---,0.00,VWS V14.00,2013-04-10 23:59:00,
2013-04-10 20:04:00,67.5,58.9,30.03,South,191,5.0,9.0,74,0.00,,---,0.00,VWS V14.00,2013-04-11 00:04:00,
2013-04-10 20:09:00,67.2,59.0,30.03,SSW,197,7.0,9.0,75,0.00,,---,0.00,VWS V14.00,2013-04-11 00:09:00,
2013-04-10 20:14:00,67.2,59.0,30.03,SSW,199,10.0,11.0,75,0.00,,---,0.00,VWS V14.00,2013-04-11 00:14:00,
2013-04-10 20:19:00,67.6,59.0,30.03,SSW,196,4.0,11.0,74,0.00,,---,0.00,VWS V14.00,2013-04-11 00:19:00,
2013-04-10 20:24:00,67.2,59.0,30.03,SSW,206,3.0,11.0,75,0.00,,---,0.00,VWS V14.00,2013-04-11 00:24:00,
2013-04-10 20:29:00,67.0,58.8,30.04,SSW,202,4.0,6.0,75,0.00,,---,0.00,VWS V14.00,2013-04-11 00:29:00,
2013-04-10 20:34:00,67.7,59.1,30.04,SW,225,13.0,13.0,74,0.00,,---,0.00,VWS V14.00,2013-04-11 00:34:00,
2013-04-10 20:39:00,67.6,59.0,30.03,SSW,196,7.0,13.0,74,0.00,,---,0.00,VWS V14.00,2013-04-11 00:39:00,
2013-04-10 20:44:00,67.6,59.0,30.03,SSW,202,6.0,13.0,74,0.00,,---,0.00,VWS V14.00,2013-04-11 00:44:00,
2013-04-10 20:49:00,67.6,59.0,30.03,SSW,202,7.0,13.0,74,0.00,,---,0.00,VWS V14.00,2013-04-11 00:49:00,
2013-04-10 20:54:00,67.6,59.0,30.03,South,186,7.0,13.0,74,0.00,,---,0.00,VWS V14.00,2013-04-11 00:54:00,
2013-04-10 20:59:00,67.4,59.2,30.04,SSW,210,6.0,10.0,75,0.00,,---,0.00,VWS V14.00,2013-04-11 00:59:00,
2013-04-10 21:04:00,67.2,59.4,30.04,SSW,194,8.0,11.0,76,0.00,,---,0.00,VWS V14.00,2013-04-11 01:04:00,
2013-04-10 21:09:00,67.2,59.4,30.04,SSW,204,9.0,11.0,76,0.00,,---,0.00,VWS V14.00,2013-04-11 01:09:00,
2013-04-10 21:14:00,67.0,59.2,30.04,SSW,198,6.0,11.0,76,0.00,,---,0.00,VWS V14.00,2013-04-11 01:14:00,
2013-04-10 21:19:00,67.1,59.7,30.04,SSW,203,6.0,11.0,77,0.00,,---,0.00,VWS V14.00,2013-04-11 01:19:00,
2013-04-10 21:24:00,67.1,59.7,30.04,SSW,199,5.0,11.0,77,0.00,,---,0.00,VWS V14.00,2013-04-11 01:24:00,
2013-04-10 21:29:00,66.7,59.6,30.04,SSW,212,7.0,7.0,78,0.00,,---,0.00,VWS V14.00,2013-04-11 01:29:00,
2013-04-10 21:34:00,66.5,59.4,30.04,SSW,205,8.0,9.0,78,0.00,,---,0.00,VWS V14.00,2013-04-11 01:34:00,
2013-04-10 21:39:00,66.3,59.6,30.04,SW,217,7.0,9.0,79,0.00,,---,0.00,VWS V14.00,2013-04-11 01:39:00,
2013-04-10 21:44:00,66.5,59.8,30.04,SSW,208,9.0,10.0,79,0.00,,---,0.00,VWS V14.00,2013-04-11 01:44:00,
2013-04-10 21:49:00,66.5,59.8,30.04,SSW,206,6.0,10.0,79,0.00,,---,0.00,VWS V14.00,2013-04-11 01:49:00,
2013-04-10 21:54:00,66.3,60.0,30.04,SSW,213,7.0,10.0,80,0.00,,---,0.00,VWS V14.00,2013-04-11 01:54:00,
2013-04-10 21:59:00,66.4,60.0,30.05,SSW,210,7.0,9.0,80,0.00,,---,0.00,VWS V14.00,2013-04-11 01:59:00,
2013-04-10 22:04:00,66.4,60.0,30.04,SSW,208,7.0,9.0,80,0.00,,---,0.00,VWS V14.00,2013-04-11 02:04:00,
2013-04-10 22:09:00,66.3,60.3,30.05,SSW,210,5.0,11.0,81,0.00,,---,0.00,VWS V14.00,2013-04-11 02:09:00,
2013-04-10 22:14:00,66.2,60.2,30.04,SSW,210,6.0,11.0,81,0.00,,---,0.00,VWS V14.00,2013-04-11 02:14:00,
2013-04-10 22:19:00,66.3,60.3,30.04,SSW,206,7.0,11.0,81,0.00,,---,0.00,VWS V14.00,2013-04-11 02:19:00,
2013-04-10 22:24:00,66.1,60.1,30.04,SSW,211,5.0,12.0,81,0.00,,---,0.00,VWS V14.00,2013-04-11 02:24:00,
2013-04-10 22:29:00,66.2,60.2,30.04,SW,214,6.0,8.0,81,0.00,,---,0.00,VWS V14.00,2013-04-11 02:29:00,
2013-04-10 22:34:00,66.2,60.5,30.05,SW,217,6.0,11.0,82,0.00,,---,0.00,VWS V14.00,2013-04-11 02:34:00,
2013-04-10 22:39:00,66.1,60.5,30.05,SW,215,8.0,11.0,82,0.00,,---,0.00,VWS V14.00,2013-04-11 02:39:00,
2013-04-10 22:44:00,66.1,60.5,30.05,SSW,204,7.0,11.0,82,0.00,,---,0.00,VWS V14.00,2013-04-11 02:44:00,
2013-04-10 22:49:00,66.0,60.7,30.05,SSW,209,7.0,13.0,83,0.00,,---,0.00,VWS V14.00,2013-04-11 02:49:00,
2013-04-10 22:54:00,66.0,60.7,30.05,SW,218,6.0,13.0,83,0.00,,---,0.00,VWS V14.00,2013-04-11 02:54:00,
2013-04-10 22:59:00,65.7,60.4,30.05,SW,220,6.0,7.0,83,0.00,,---,0.00,VWS V14.00,2013-04-11 02:59:00,
2013-04-10 23:04:00,65.7,60.4,30.04,SW,214,6.0,10.0,83,0.00,,---,0.00,VWS V14.00,2013-04-11 03:04:00,
2013-04-10 23:09:00,65.7,60.4,30.04,SW,215,6.0,10.0,83,0.00,,---,0.00,VWS V14.00,2013-04-11 03:09:00,
2013-04-10 23:14:00,65.7,60.4,30.04,SW,215,5.0,11.0,83,0.00,,---,0.00,VWS V14.00,2013-04-11 03:14:00,
2013-04-10 23:19:00,65.7,60.4,30.04,SSW,202,7.0,11.0,83,0.00,,---,0.00,VWS V14.00,2013-04-11 03:19:00,
2013-04-10 23:24:00,65.6,60.3,30.04,SSW,211,6.0,11.0,83,0.00,,---,0.00,VWS V14.00,2013-04-11 03:24:00,
2013-04-10 23:29:00,65.4,60.1,30.04,SSW,210,7.0,8.0,83,0.00,,---,0.00,VWS V14.00,2013-04-11 03:29:00,
2013-04-10 23:34:00,65.2,60.2,30.03,SSW,198,8.0,10.0,84,0.00,,---,0.00,VWS V14.00,2013-04-11 03:34:00,
2013-04-10 23:39:00,65.3,60.3,30.03,SSW,199,6.0,11.0,84,0.00,,---,0.00,VWS V14.00,2013-04-11 03:39:00,
2013-04-10 23:44:00,65.3,60.7,30.03,SW,228,7.0,11.0,85,0.00,,---,0.00,VWS V14.00,2013-04-11 03:44:00,
2013-04-10 23:49:00,65.2,60.6,30.03,SW,222,8.0,11.0,85,0.00,,---,0.00,VWS V14.00,2013-04-11 03:49:00,
2013-04-10 23:54:00,65.2,60.6,30.03,South,184,4.0,13.0,85,0.00,,---,0.00,VWS V14.00,2013-04-11 03:54:00,
2013-04-10 23:59:00,65.3,60.7,30.03,SSW,213,6.0,8.0,85,0.00,,---,0.00,VWS V14.00,2013-04-11 03:59:00,